Location: Staunton
(38.1490°N, 79.0720°W)
Time: 03:27:52
(UTC-04:00)

ISS - Pass Details

Date: 16 September 2017
Orbit: 401 x 407 km, 51.6° (Epoch: 23 September)

Event Time Altitude Azimuth Distance (km) Brightness Sun altitude
Exits shadow 06:12:46 - 317° (NW) 2,295 -0.3 -9.9°
Reaches altitude 10° 06:14:58 10° 330° (NNW) 1,470 -1.2 -9.4°
Maximum altitude 06:17:50 27° 30° (NNE) 825 -1.8 -8.9°
Drops below altitude 10° 06:20:41 10° 90° (E) 1,463 0.6 -8.3°
Sets 06:22:58 0° 104° (ESE) 2,320 1.5 -7.9°
